Temp
12 12 12 12 12 12 11 11 11 11 10 10 10 9 10 9 9 9 8 8 9 9 9 9 9 9 9 9 10 10 10 10 10 9 9 9 9 9 9 9 9 9 9 9 8 8 8 8 8
12 12 12 12 12 11 11 11 10 10 10 10 10 10 9 9 9 9 9 9 9 8 9 9 9 9 9 9 10 10 9 10 9 9 9 9 9 9 9 9 9 9 9 9 8 8 8 8 8
13 13 13 12 12 11 11 11 11 11 10 10 10 10 9 9 10 8 8 8 8 8 9 9 9 9 9 9 10 10 10 10 9 9 9 9 9 9 9 10 9 9 9 9 9 8 8 8 8
13 13 13 13 12 12 11 11 11 11 10 9 9 9 9 9 9 8 8 8 8 8 9 9 9 9 9 9 10 9 9 9 9 9 9 8 8 9 9 9 10 9 9 9 9 9 8 8 8
13 13 13 12 12 12 11 11 11 11 10 10 9 9 9 8 8 9 7 7 8 8 9 9 9 9 9 9 9 9 9 9 9 9 8 8 8 9 9 9 10 10 9 9 9 8 8 8 8
13 13 13 12 12 11 11 11 11 11 11 11 10 9 8 8 8 7 8 8 8 8 9 9 9 9 9 9 9 9 9 9 9 9 9 9 9 9 9 9 10 10 9 9 9 8 8 8 8
13 13 13 12 11 11 11 11 11 11 11 11 10 9 8 8 7 7 7 7 8 9 8 9 9 9 9 9 9 9 9 9 9 9 9 9 9 9 9 9 9 9 9 9 9 9 8 8 8
13 13 12 12 12 12 12 12 11 11 11 10 9 9 9 8 8 8 8 8 10 9 9 9 9 10 9 9 9 9 9 9 9 9 9 9 9 9 9 9 9 9 9 9 9 9 8 8 8
13 12 12 12 12 12 12 11 11 11 11 10 10 9 9 8 8 8 9 9 10 9 9 9 10 9 9 9 9 9 9 9 9 9 9 9 9 8 8 8 8 8 8 8 8 8 8 8 8
12 13 12 12 12 12 12 11 12 11 10 10 10 9 8 8 8 9 9 9 9 10 10 10 10 10 9 9 10 9 10 9 9 9 9 9 9 8 8 8 8 8 8 8 8 8 8 7 8
13 13 12 13 13 12 12 12 11 10 10 10 11 10 9 8 9 9 9 8 9 9 10 10 10 10 9 10 10 10 9 10 9 9 9 9 8 8 8 8 8 8 8 8 8 8 8 8 8
13 13 13 13 13 12 11 11 11 10 10 10 11 11 11 10 9 9 9 9 9 10 10 10 10 10 10 10 10 10 10 10 9 9 9 9 8 9 8 8 8 8 8 8 8 8 8 8 8
14 13 13 13 13 13 12 11 11 11 11 10 10 11 11 10 9 9 9 9 10 10 10 10 10 10 10 10 10 10 10 9 9 9 9 9 8 8 8 8 8 8 8 9 9 8 8 8 8
13 13 13 13 13 13 12 12 12 11 11 11 10 10 11 10 10 10 10 10 10 10 10 10 10 10 10 9 9 9 10 9 9 9 9 9 9 9 9 9 9 9 8 9 9 9 8 8 8
14 13 13 13 13 13 12 12 11 11 11 11 11 11 11 10 10 10 9 10 10 10 10 10 10 10 10 9 10 10 10 9 9 9 9 9 9 9 9 9 9 9 9 9 9 9 9 9 9
14 14 14 13 13 13 13 12 12 11 11 11 10 11 11 11 10 10 10 10 10 10 10 10 10 10 10 10 10 10 9 10 10 9 9 9 9 10 10 10 9 9 9 9 9 9 9 9 9
14 14 15 14 13 13 13 12 12 11 10 11 11 11 11 10 10 10 10 10 10 10 10 10 10 10 10 10 10 10 10 9 9 9 9 9 9 10 10 10 10 10 10 10 10 10 10 10 9
14 14 14 14 14 13 13 12 12 12 11 10 10 10 10 10 10 10 10 10 10 10 10 10 10 10 10 10 10 10 10 9 9 9 9 9 9 10 11 10 10 10 10 10 10 10 10 9 9
14 14 14 14 14 13 13 12 12 12 11 11 10 10 10 10 10 10 10 10 10 10 10 10 10 10 10 10 10 10 10 9 8 9 9 9 10 10 11 11 11 10 10 10 10 10 9 9 9
15 15 15 14 14 13 14 13 12 12 12 12 11 11 10 10 10 10 11 11 11 10 10 10 10 10 10 10 10 10 10 9 9 9 9 10 10 11 11 11 11 11 11 10 10 10 10 10 9
16 15 15 14 14 14 14 13 13 13 12 11 11 11 11 11 11 11 10 11 11 11 11 11 10 10 10 10 10 10 10 9 9 10 10 10 10 11 11 11 11 11 11 10 10 10 10 10 10
16 17 16 14 14 13 13 15 14 14 13 12 12 12 11 12 11 11 11 11 11 11 11 11 11 11 10 10 10 10 10 10 10 10 10 10 10 11 11 11 11 11 11 11 10 10 10 10 10
16 17 16 14 13 13 13 13 15 15 14 14 13 12 12 12 12 12 11 11 11 11 11 11 11 11 11 11 11 11 11 11 10 10 9 10 10 11 11 11 12 11 11 11 11 11 11 11 11
16 16 15 13 13 15 13 13 14 15 15 15 14 13 12 12 12 12 12 11 11 11 12 12 12 12 11 11 11 11 11 11 11 10 9 9 10 11 11 11 11 12 11 11 11 11 11 11 11
17 17 15 16 16 16 13 12 15 15 14 14 13 13 13 13 13 12 12 12 11 11 11 11 11 11 12 12 11 11 11 11 11 10 9 9 9 11 11 11 11 11 11 11 11 11 11 11 11
18 16 18 17 17 16 13 14 15 15 14 13 13 13 13 13 13 13 12 12 12 11 11 11 11 11 11 11 11 11 11 11 11 11 10 10 10 11 11 11 10 10 10 10 11 11 11 11 11
17 16 17 17 14 14 14 15 15 15 14 13 13 13 13 13 14 13 13 12 12 12 11 11 11 11 11 11 11 11 11 11 11 11 11 10 10 10 11 10 10 10 10 10 11 11 11 11 10
18 17 17 17 16 17 15 14 15 16 15 15 14 13 14 14 14 13 13 13 13 12 12 12 11 11 11 11 11 10 11 11 11 11 11 10 10 10 10 11 10 10 10 10 11 11 10 10 10
18 17 18 18 17 18 18 17 15 15 15 15 15 14 14 14 13 13 13 13 13 13 13 12 12 11 11 11 10 10 10 10 11 11 11 11 10 10 10 10 10 10 10 10 10 10 10 10 10
18 18 18 18 16 16 15 16 15 15 15 15 15 15 14 14 14 14 14 14 13 13 13 13 13 12 12 11 11 10 10 10 10 10 11 11 10 10 10 10 10 10 10 10 10 10 10 10 10
Height
3180 3180 3181 3181 3186 3184 3184 3187 3186 3186 3187 3187 3188 3189 3191 3191 3193 3197 3195 3197 3198 3204 3206 3206 3208 3210 3210 3211 3213 3214 3215 3216 3217 3218 3218 3217 3218 3216 3218 3218 3218 3218 3219 3219 3219 3219 3218 3218 3217
3182 3182 3183 3184 3187 3185 3188 3188 3188 3188 3189 3189 3190 3190 3191 3191 3192 3194 3196 3199 3202 3203 3207 3208 3210 3211 3213 3213 3214 3216 3217 3218 3219 3220 3219 3219 3220 3219 3220 3220 3220 3220 3221 3220 3220 3220 3220 3220 3220
3184 3185 3186 3186 3187 3188 3190 3189 3189 3189 3189 3190 3191 3191 3191 3192 3193 3194 3197 3200 3204 3207 3209 3210 3212 3213 3215 3216 3216 3218 3219 3220 3221 3222 3222 3222 3222 3222 3222 3223 3223 3223 3224 3223 3223 3223 3222 3222 3223
3187 3188 3188 3188 3190 3191 3191 3190 3189 3189 3189 3190 3190 3191 3192 3192 3194 3195 3197 3202 3205 3210 3211 3212 3214 3215 3217 3218 3219 3219 3221 3222 3223 3224 3224 3224 3223 3222 3223 3225 3225 3227 3226 3225 3225 3225 3225 3224 3224
3188 3188 3189 3190 3192 3193 3192 3192 3191 3190 3190 3190 3189 3190 3191 3192 3194 3197 3200 3203 3208 3211 3213 3215 3215 3217 3219 3220 3220 3221 3222 3224 3225 3226 3226 3226 3226 3224 3225 3226 3227 3228 3228 3227 3227 3227 3226 3226 3226
3190 3191 3191 3192 3193 3194 3194 3193 3192 3191 3191 3189 3188 3188 3191 3193 3196 3198 3202 3206 3209 3212 3214 3218 3217 3219 3221 3221 3221 3222 3224 3224 3226 3227 3228 3229 3228 3227 3226 3227 3228 3228 3229 3228 3228 3228 3228 3227 3227
3191 3192 3192 3193 3194 3195 3196 3195 3193 3193 3192 3190 3189 3189 3192 3194 3199 3201 3206 3208 3213 3213 3214 3219 3219 3220 3222 3223 3224 3225 3225 3225 3227 3228 3229 3230 3229 3228 3228 3228 3228 3228 3229 3229 3229 3229 3228 3228 3228
3192 3193 3194 3195 3196 3197 3196 3195 3194 3194 3193 3192 3192 3193 3191 3195 3201 3206 3207 3210 3214 3218 3216 3219 3221 3222 3223 3225 3225 3227 3226 3228 3228 3230 3230 3230 3230 3230 3230 3229 3229 3228 3228 3228 3228 3229 3230 3228 3229
3193 3195 3195 3196 3196 3197 3197 3198 3196 3196 3195 3194 3194 3196 3197 3197 3202 3205 3208 3212 3216 3217 3220 3221 3223 3223 3225 3226 3227 3229 3229 3230 3231 3231 3232 3232 3231 3231 3230 3230 3229 3227 3227 3227 3227 3228 3228 3229 3229
3194 3195 3195 3197 3197 3198 3198 3199 3199 3199 3198 3197 3197 3198 3199 3200 3205 3206 3210 3213 3217 3219 3221 3223 3223 3224 3227 3227 3229 3230 3231 3232 3232 3232 3233 3232 3231 3231 3230 3229 3227 3224 3223 3219 3223 3225 3227 3228 3229
3196 3196 3196 3197 3198 3199 3199 3200 3200 3200 3200 3202 3200 3199 3202 3204 3205 3210 3213 3216 3219 3220 3221 3223 3225 3226 3227 3229 3231 3231 3232 3233 3231 3232 3233 3233 3232 3231 3230 3228 3226 3223 3222 3220 3221 3223 3226 3227 3229
3195 3196 3196 3197 3199 3200 3200 3201 3202 3201 3201 3204 3204 3204 3205 3208 3210 3213 3215 3217 3219 3221 3222 3224 3225 3227 3228 3230 3231 3232 3233 3233 3231 3233 3234 3233 3232 3231 3229 3227 3224 3221 3216 3219 3222 3223 3225 3228 3229
3195 3195 3196 3197 3199 3200 3200 3201 3203 3202 3201 3203 3205 3206 3207 3209 3211 3213 3216 3218 3220 3222 3222 3224 3226 3228 3229 3230 3231 3232 3233 3233 3233 3233 3234 3234 3232 3231 3229 3228 3225 3223 3221 3221 3222 3224 3227 3229 3230
3194 3193 3196 3198 3199 3200 3201 3201 3202 3203 3203 3204 3206 3209 3210 3211 3214 3215 3218 3219 3220 3222 3224 3226 3227 3228 3229 3230 3232 3232 3233 3233 3233 3233 3234 3234 3233 3233 3231 3229 3227 3224 3222 3222 3223 3224 3228 3230 3231
3193 3187 3192 3197 3199 3199 3201 3203 3203 3204 3205 3206 3206 3209 3211 3211 3216 3217 3219 3220 3221 3222 3224 3226 3227 3228 3229 3230 3231 3232 3233 3233 3233 3234 3234 3235 3234 3234 3232 3230 3228 3225 3223 3222 3222 3225 3229 3231 3233
3196 3196 3195 3197 3198 3199 3201 3203 3204 3205 3206 3207 3208 3210 3213 3214 3216 3218 3220 3221 3221 3223 3225 3226 3227 3228 3229 3230 3232 3232 3232 3233 3233 3234 3235 3235 3235 3234 3233 3231 3229 3226 3225 3224 3224 3226 3229 3231 3233
3197 3199 3196 3198 3199 3199 3202 3203 3205 3206 3206 3208 3209 3210 3211 3214 3217 3219 3221 3222 3223 3223 3225 3226 3227 3229 3230 3232 3232 3232 3232 3233 3234 3234 3235 3235 3236 3236 3235 3232 3230 3228 3227 3226 3227 3228 3230 3232 3233
3198 3198 3196 3198 3199 3199 3200 3202 3204 3206 3207 3209 3210 3211 3212 3214 3217 3220 3221 3222 3224 3225 3226 3227 3228 3229 3231 3232 3231 3232 3233 3233 3234 3235 3236 3236 3237 3237 3236 3234 3232 3231 3229 3229 3230 3230 3232 3234 3235
3197 3196 3196 3197 3198 3199 3199 3201 3203 3205 3206 3207 3209 3211 3213 3215 3217 3219 3221 3223 3224 3225 3226 3227 3228 3230 3231 3232 3232 3232 3233 3233 3234 3234 3236 3237 3237 3237 3236 3235 3233 3233 3232 3231 3232 3233 3235 3236 3236
3195 3195 3195 3196 3198 3198 3198 3199 3201 3203 3205 3207 3208 3210 3213 3215 3216 3218 3220 3222 3223 3225 3226 3227 3228 3229 3230 3231 3232 3232 3232 3232 3233 3234 3235 3236 3237 3237 3236 3236 3234 3234 3234 3234 3234 3235 3236 3237 3238
3194 3193 3193 3195 3195 3196 3198 3199 3199 3201 3204 3206 3207 3208 3211 3213 3215 3218 3219 3221 3222 3224 3226 3227 3228 3229 3230 3230 3231 3231 3231 3232 3232 3233 3234 3236 3237 3236 3236 3236 3235 3235 3235 3235 3235 3236 3237 3238 3239
3193 3192 3192 3192 3196 3198 3198 3199 3197 3198 3201 3203 3205 3206 3208 3210 3214 3216 3218 3220 3221 3223 3224 3226 3227 3227 3228 3229 3230 3230 3231 3231 3232 3233 3235 3235 3236 3236 3235 3234 3235 3235 3235 3236 3237 3237 3238 3239 3240
3194 3193 3193 3194 3196 3197 3197 3199 3195 3196 3196 3197 3201 3204 3207 3210 3212 3214 3217 3218 3219 3220 3223 3224 3225 3225 3227 3228 3229 3229 3230 3231 3231 3232 3234 3235 3236 3236 3235 3235 3235 3235 3236 3237 3237 3238 3240 3240 3241
3193 3193 3194 3195 3195 3196 3196 3198 3193 3192 3194 3197 3199 3201 3204 3207 3209 3212 3215 3216 3218 3218 3220 3222 3223 3224 3225 3227 3227 3228 3229 3230 3231 3231 3232 3234 3235 3235 3235 3235 3235 3235 3236 3237 3238 3238 3239 3240 3241
3193 3194 3196 3197 3196 3196 3195 3196 3193 3192 3192 3192 3194 3196 3199 3201 3205 3208 3213 3215 3217 3218 3219 3221 3222 3223 3224 3225 3226 3227 3228 3228 3229 3229 3231 3232 3234 3234 3235 3236 3235 3236 3236 3237 3238 3238 3239 3240 3241
3192 3193 3194 3195 3195 3195 3194 3194 3193 3192 3190 3190 3191 3191 3193 3198 3201 3206 3210 3214 3216 3218 3219 3220 3221 3222 3223 3224 3225 3225 3226 3227 3227 3228 3229 3230 3232 3233 3234 3235 3235 3235 3235 3234 3237 3238 3239 3240 3239
3191 3192 3194 3194 3195 3196 3194 3192 3192 3191 3188 3187 3185 3188 3190 3196 3199 3202 3205 3209 3213 3216 3218 3219 3221 3222 3223 3223 3223 3223 3223 3225 3226 3226 3228 3229 3230 3231 3232 3233 3234 3235 3235 3235 3236 3238 3238 3238 3238
3190 3191 3194 3192 3195 3193 3192 3191 3191 3192 3190 3188 3186 3187 3191 3194 3197 3200 3202 3205 3209 3213 3214 3216 3218 3219 3221 3222 3222 3222 3223 3223 3224 3226 3227 3228 3229 3229 3230 3231 3232 3234 3235 3235 3235 3236 3237 3237 3237
3188 3190 3191 3192 3193 3190 3190 3191 3191 3192 3193 3191 3191 3191 3193 3197 3200 3201 3202 3203 3205 3208 3211 3213 3215 3217 3218 3220 3222 3222 3222 3222 3222 3224 3226 3227 3227 3227 3228 3227 3228 3230 3231 3232 3232 3233 3234 3235 3235
3185 3187 3188 3190 3191 3189 3190 3192 3190 3192 3194 3193 3194 3194 3196 3197 3198 3199 3201 3202 3204 3207 3210 3212 3213 3214 3215 3217 3218 3220 3220 3220 3220 3221 3222 3223 3224 3224 3225 3226 3226 3227 3228 3228 3229 3230 3231 3231 3231
Wind_Speed
12 12 10 11 11 11 10 7 9 8 8 9 10 11 10 6 11 3 19 27 26 20 19 19 17 15 16 16 15 15 16 16 15 15 14 15 14 17 14 15 15 14 12 13 13 13 13 13 13
13 13 13 15 14 11 8 9 7 6 5 9 10 5 9 6 6 6 27 26 25 21 18 17 16 16 16 16 16 16 16 16 15 13 13 15 13 15 15 13 14 14 13 13 11 11 13 14 14
14 14 13 9 9 8 7 7 2 3 3 6 6 3 7 7 2 23 28 27 22 18 17 16 15 16 15 16 17 16 15 15 13 12 11 12 12 12 13 13 12 13 12 11 10 10 12 12 12
8 11 12 13 13 11 10 6 2 2 2 2 4 5 9 9 13 28 30 25 21 17 16 14 15 15 15 15 16 15 14 13 12 10 9 9 10 10 10 10 10 10 10 10 10 9 10 10 10
9 11 8 9 11 10 9 8 4 4 5 4 6 5 11 17 25 30 31 27 23 19 17 12 15 13 13 15 14 13 13 11 9 7 6 7 7 8 8 8 8 8 8 9 9 8 9 8 8
9 11 11 9 10 11 9 9 9 5 5 4 4 7 17 23 27 28 33 30 23 21 15 11 14 13 12 14 12 11 11 10 8 4 5 4 5 6 5 6 6 6 6 6 7 6 7 8 7
14 10 13 12 12 9 7 9 11 10 10 10 9 14 21 29 28 23 23 27 21 21 15 11 12 12 12 12 12 11 10 9 7 5 4 3 3 3 3 3 4 3 4 3 4 4 4 4 4
12 10 10 10 9 8 7 12 11 9 12 14 15 9 23 28 26 29 28 25 23 18 13 12 11 12 12 11 11 9 9 8 6 4 3 2 2 3 3 3 3 3 3 2 1 2 2 1 1
9 9 10 8 5 5 7 9 8 11 8 7 9 13 19 25 23 28 28 27 22 10 12 11 11 11 10 10 9 7 7 6 6 3 2 1 2 3 3 4 4 4 4 3 3 0 2 2 1
13 9 9 6 6 4 3 7 5 6 7 9 16 13 16 27 26 25 26 28 17 12 10 11 10 9 9 9 8 7 5 5 4 2 1 1 2 4 4 6 6 8 10 5 5 3 1 4 4
7 7 5 5 7 6 4 7 4 6 6 10 21 30 13 21 30 23 23 18 15 12 12 7 9 9 9 8 7 6 4 3 3 1 1 2 3 4 8 10 12 14 12 8 6 2 1 5 6
5 4 1 3 4 8 5 5 6 9 5 12 18 24 18 26 23 20 18 15 12 10 11 10 9 7 6 6 5 3 2 2 1 2 3 4 5 6 9 9 12 18 13 7 5 2 5 6 6
7 0 2 4 2 4 5 3 7 10 6 18 19 15 11 20 15 15 14 12 11 9 10 9 8 6 5 4 4 2 2 3 3 4 1 2 4 7 10 11 13 14 13 7 3 6 6 6 6
13 2 3 6 6 2 2 4 3 7 5 20 17 14 10 11 14 14 13 11 10 9 10 10 9 6 5 5 2 2 2 4 2 2 1 3 4 6 9 10 12 14 12 5 3 6 5 7 7
25 11 11 7 4 7 6 3 2 4 6 19 20 15 15 13 13 15 16 13 10 11 11 11 8 7 6 4 3 1 3 3 2 1 2 3 4 6 9 10 12 13 12 6 1 10 8 7 5
10 19 9 7 5 4 4 1 4 2 5 17 20 17 14 14 15 18 14 13 14 16 16 12 8 7 7 5 4 4 3 2 1 1 5 4 5 8 8 9 12 13 12 8 5 9 9 7 7
10 6 3 4 4 4 6 3 7 4 7 14 21 22 21 19 17 17 16 13 15 16 14 12 8 7 5 4 4 4 4 2 2 2 3 4 5 6 6 8 10 12 9 8 7 8 9 8 7
10 9 10 9 2 5 6 8 8 8 7 13 18 21 21 19 18 16 13 13 12 12 12 10 8 7 4 3 2 2 1 2 4 2 2 3 5 5 4 5 9 10 9 8 7 7 7 7 6
12 13 11 8 4 2 4 10 10 11 11 18 19 21 19 19 17 16 14 12 11 9 10 8 8 6 3 2 1 1 3 4 6 5 2 2 3 4 3 2 5 9 10 7 7 8 8 7 5
18 11 8 10 6 1 1 3 11 15 14 14 23 20 17 20 17 18 15 15 12 10 8 8 8 6 4 3 2 0 0 1 4 4 2 1 3 4 2 1 4 5 8 8 6 5 5 5 4
7 5 4 10 12 9 5 5 9 17 19 17 18 20 17 18 16 15 15 13 12 11 10 9 8 6 4 3 3 2 2 3 1 1 2 0 2 3 2 1 3 3 4 5 6 6 4 3 4
4 7 4 11 9 5 7 2 5 14 19 22 19 17 18 16 14 15 14 11 10 13 13 11 10 7 4 3 2 2 2 5 3 0 1 3 3 2 1 1 3 3 3 3 4 4 6 6 6
4 5 3 5 12 7 4 3 5 9 17 17 21 21 18 15 16 13 12 11 11 11 12 12 10 9 7 4 2 1 2 4 1 2 3 3 3 2 1 2 4 3 3 3 4 4 5 7 7
2 4 9 4 2 4 5 4 4 5 6 13 15 17 16 18 17 17 14 13 13 16 15 13 11 10 8 5 4 3 3 3 2 2 3 3 3 2 2 3 5 4 2 3 4 6 7 7 6
7 7 4 1 1 2 4 3 3 6 4 6 14 19 19 18 21 23 17 15 13 17 18 14 13 12 10 8 6 4 4 3 2 2 4 6 4 5 4 4 5 3 2 6 6 7 7 7 6
11 11 2 2 2 3 4 4 1 3 5 10 10 14 16 18 22 25 21 18 15 17 16 15 12 11 10 8 8 6 4 4 3 3 3 5 7 8 7 6 4 1 2 7 8 8 7 8 8
14 10 5 4 0 3 3 6 7 6 2 7 4 11 15 17 21 28 25 23 19 17 15 14 12 10 9 9 6 5 5 5 6 6 5 5 7 8 8 7 7 4 1 6 6 7 7 8 7
6 6 4 4 2 3 3 5 0 7 9 6 5 6 16 19 16 21 25 25 24 23 20 18 17 13 12 8 4 3 1 5 7 7 6 7 6 6 7 11 11 11 8 6 6 7 8 8 8
8 9 3 4 4 2 1 2 2 6 11 7 5 9 15 15 8 5 7 21 26 27 25 22 21 20 16 12 9 6 2 4 8 9 9 9 9 9 8 10 14 14 14 12 10 11 11 13 14
11 10 10 7 6 6 2 1 4 2 2 8 6 4 5 3 3 4 5 12 22 23 22 20 23 20 19 17 16 14 11 9 9 11 13 14 13 13 12 11 11 13 15 17 16 15 16 16 16
Wind_Direction
90 90 92 86 83 90 72 77 85 98 98 108 135 152 180 195 171 146 145 144 132 134 127 118 109 105 104 99 97 100 103 104 103 98 94 87 81 81 76 84 95 99 96 91 96 102 100 96 99
91 92 87 84 92 83 78 86 98 91 93 117 140 126 179 184 186 219 142 136 132 130 124 113 110 107 106 101 101 104 109 108 106 103 98 87 79 79 80 80 101 105 101 95 97 101 101 95 88
90 93 93 91 74 75 91 101 86 103 107 143 158 215 189 186 248 153 139 133 137 132 118 114 110 111 107 107 108 106 112 112 108 104 91 89 85 79 77 82 95 105 105 99 92 98 99 98 97
92 86 82 85 80 78 75 66 35 358 17 187 243 234 208 177 148 144 136 131 126 131 116 114 109 110 113 115 116 115 117 117 110 99 92 88 85 82 79 79 92 97 101 101 101 101 97 95 90
96 90 95 108 95 112 86 53 1 336 331 305 236 225 186 160 158 152 144 141 133 120 112 115 110 115 118 116 122 124 123 121 110 103 99 88 76 75 74 75 72 84 93 105 107 101 101 93 83
109 104 102 116 129 125 88 54 39 27 41 12 289 201 169 161 167 157 141 141 131 117 110 119 114 122 127 124 126 128 125 123 120 120 90 73 75 70 64 59 63 65 67 81 97 95 94 98 91
121 113 113 114 126 129 82 60 69 79 71 73 89 147 153 164 151 135 134 128 127 125 115 115 117 125 135 131 130 132 134 127 134 128 106 97 94 87 61 48 39 37 68 68 74 87 92 85 87
126 107 106 108 99 100 86 58 86 79 73 90 101 135 152 149 138 135 129 136 122 132 125 119 123 130 138 142 142 143 127 130 130 115 113 94 67 50 41 22 2 343 347 355 68 100 91 96 73
113 102 91 86 68 91 73 43 89 62 64 86 94 135 141 140 146 138 129 141 144 140 133 124 128 130 138 145 137 138 130 129 106 109 100 68 35 13 16 342 320 282 262 266 275 226 185 198 203
105 97 83 76 62 89 61 57 90 87 107 115 111 119 151 141 139 142 141 149 153 139 130 133 127 128 144 135 140 136 128 116 114 105 48 144 53 30 356 324 291 289 266 262 256 229 153 130 156
119 78 73 66 59 85 70 66 115 82 115 112 107 88 126 128 141 145 143 151 139 138 132 140 138 152 144 138 139 132 127 131 124 147 225 68 46 1 334 329 312 307 305 284 250 255 51 154 153
82 101 87 7 81 85 69 42 45 65 103 128 132 96 105 130 130 140 146 141 144 142 145 150 137 138 140 137 124 116 122 165 143 127 120 52 29 4 350 345 326 322 342 266 236 199 152 142 139
41 166 233 280 251 46 73 24 41 56 91 147 165 136 128 140 149 145 147 146 147 152 145 139 136 141 127 128 120 127 134 113 117 100 115 47 6 2 352 341 348 348 359 17 169 201 160 150 140
24 324 210 250 265 297 5 355 21 45 110 145 145 157 164 165 148 154 141 138 141 153 150 146 132 134 126 127 103 124 131 115 117 108 1 46 358 3 350 356 2 3 9 18 181 185 166 165 154
46 70 136 216 237 252 289 273 274 60 139 151 144 154 163 194 155 143 142 139 139 147 152 142 125 116 116 86 45 108 159 148 105 84 53 42 14 0 354 9 19 24 21 25 165 176 162 144 150
35 64 122 175 232 213 190 121 194 100 126 166 157 159 163 175 156 152 143 133 127 124 123 119 111 97 84 80 81 114 134 184 109 3 20 32 16 345 350 23 25 36 38 41 116 158 167 157 140
7 67 39 24 226 256 184 142 170 153 151 167 157 153 149 159 164 161 142 135 127 121 115 109 103 94 91 103 84 84 116 147 205 311 21 32 5 345 351 34 39 43 46 58 107 134 150 143 136
329 322 324 312 324 265 246 179 182 164 150 178 164 157 156 148 147 145 141 140 137 131 127 121 112 102 104 98 97 95 131 191 217 274 328 14 343 339 10 34 48 50 57 70 108 118 131 126 127
314 308 301 293 332 336 244 226 217 192 170 184 180 172 162 154 153 153 155 145 135 142 142 134 118 119 116 114 176 149 214 231 234 267 298 348 334 347 17 61 62 56 61 76 104 120 133 119 111
305 300 287 256 253 178 287 226 223 220 180 172 185 186 179 173 181 171 167 153 142 145 158 152 136 131 121 100 112 147 282 328 237 232 173 300 319 349 6 158 85 67 63 67 87 109 117 113 102
334 338 289 237 241 232 283 257 208 196 200 191 187 186 180 190 192 186 173 153 153 155 168 169 157 142 127 105 106 108 144 205 210 138 160 317 326 348 11 171 133 110 98 90 96 100 108 107 94
24 15 206 224 232 235 231 320 267 216 209 212 201 189 179 169 181 194 189 168 148 164 176 177 167 146 130 116 119 149 188 202 217 293 20 353 321 331 8 162 165 150 128 114 117 135 126 117 112
356 41 74 188 221 257 277 259 248 216 220 213 209 208 196 178 170 179 172 159 156 167 174 173 165 147 144 144 122 112 152 196 204 265 317 329 291 298 296 146 135 138 145 143 129 124 135 138 130
259 85 91 129 166 266 260 267 282 328 303 210 198 204 198 202 202 182 183 187 180 168 166 164 159 148 143 142 132 132 162 172 201 226 272 253 266 234 205 153 124 135 161 169 152 142 143 140 133
212 168 95 90 240 294 297 268 281 329 291 217 221 218 215 201 211 192 190 194 192 169 165 166 161 148 144 154 153 157 180 183 198 221 251 230 252 233 204 170 155 155 239 218 178 166 152 152 162
203 216 259 331 303 339 282 246 11 359 289 245 249 246 233 212 200 191 181 196 200 181 175 166 167 159 144 146 170 176 178 195 214 226 216 221 223 225 208 202 200 175 9 172 175 176 182 179 192
215 230 214 115 145 293 268 300 63 66 331 311 264 202 207 181 200 191 192 192 197 195 203 187 183 183 166 149 133 174 193 197 204 218 219 229 228 217 215 220 221 232 173 154 178 191 200 205 220
222 210 156 147 171 257 279 292 35 95 42 29 43 203 179 185 192 198 203 193 200 206 215 212 204 194 184 189 170 125 215 220 227 233 229 224 232 240 229 232 231 235 231 213 210 213 222 239 256
197 197 175 162 192 271 282 52 164 131 46 60 77 137 174 199 223 200 213 206 200 208 207 216 212 210 213 234 246 231 251 255 230 236 237 233 232 239 246 238 233 235 235 233 233 243 251 259 267
212 223 230 224 215 220 188 135 241 234 54 60 117 170 169 186 195 202 182 214 205 208 213 215 219 211 214 217 232 242 244 250 253 237 233 235 234 239 243 248 246 243 243 245 245 252 261 266 271